Location: Namasale
(1.5000°N, 32.6167°E)
Time: 23:46:11
(UTC+00:00)

Vanguard 3 - Pass Details

Date: 07 December 2021
Orbit: 508 x 3260 km, 33.3° (Epoch: 27 January)

Event Time Altitude Azimuth Distance (km) Brightness Sun altitude
Rises 18:49:02 0° 208° (SSW) 3,924 11.3 -43.2°
Reaches altitude 10° 18:51:46 10° 196° (SSW) 3,285 10.6 -43.8°
Enters shadow 18:55:56 25° 167° (SSE) 2,757 9.8 -44.6°
